Showing default

SUPERBIRD 7, 33274

Orbit data source: Space-Track

SUPERBIRD 7, 33274 is a payload satellite owned by Sky Perfect SCC (JP) in GEO that was launched on Thu, 14 Aug 2008 UTC via an ARIANE 5ECA launch vehicle from the French Guiana (FRGUI). Payload-class satellites include a variety of spacecraft equipped with specific instruments for various scientific and technological missions. These include communications satellites like Starlink; space stations such as the ISS; scientific satellites like the Hubble; Earth observation satellites from companies like Planet Labs, Umbra, and HawkEye 360; GPS; miniature CubeSats for education and research; and military/defense satellites.

Not visible in the next 10 days
Identifier
33274, 2008-038A
Orbit
GEO
Country
Flag of JPJP / JPN
Related business
Manufacturer
MELCO
Mission
Operational Commercial Communications
Bus & Motor
DS-2000, R-4D-11-164
Mass
4,820 kg wet, 2,018 kg dry
Launch date (UTC)
2008-08-14 (17 years ago)
Launch vehicle
ARIANE 5ECA
Launch site
French Guiana (FRGUI)
Object type
Payload
Rocket body
Debris
Shape & HBR
Box + 2 Pan, 15.8 m
Radar Cross Section
46.391 m², Large (>1 m²)

Expand to show TLE details & history
Last TLE update: 12 hours ago

TLE from 12 hours ago
0 SUPERBIRD 7
1 33274U 08038A   25346.80260912 -.00000294  00000-0  00000-0 0  9992
2 33274   1.8812  83.6603 0003766 118.8361 304.1955  1.00274251103864
Epoch: 2025-12-12T19:15Z
TLE epoch observation values (Epoch: 2025-12-12T19:15:45.427Z)
Latitude
1.6816°
Longitude
135.96118°
Altitude
35,776.338 km
Speed
3.075 km/s
True Right ascension
09h 46m 33s
True Declination
1° 40' 48"
Sunlit
Object was in daylight at epoch
Visualization orbit readout
Latitude
Unknown
Longitude
Unknown
Altitude
Unknown
Speed
Unknown
Apparent Right ascension
Unknown
Apparent Declination
Unknown
Sunlit
N/A
Visualization observer readout
Local Sidereal Time
05:21:55
Azimuth
Unknown
Elevation
Unknown
Doppler factor
Unknown
Orbital elements
Apogee altitude
35,802.852 km
Perigee altitude
35,771.093 km
Semi-major axis
42,165.109 km
Eccentricity
0.00038
Inclination
1.8812°
RAAN
83.6603°
Arg. of periapsis
118.8361°
True anomaly
304.1598°
Mean anomaly
304.1955°
Eccentric anomaly
304.17765°
Mean motion
0.25068 °/min
Orbital period
1,436.11 mins
BSTAR
0
Loading maneuver chart data...
Computing Atmospheric mass density...
Loading historical data...
Loading historical data...
Loading historical data...
Loading historical data...
Loading historical data...
Loading historical data...
Loading historical data...
Other satellites on launch #38 in the year 2008 (2008-08-14 UTC)

Documentation

Showing up to 5 results
|